SCP
0 0 0 0 0 0 0 0 0 0 0 0 0 0 0 0 0 0 0 0 0 0 0 0 0 0 0 0 0 0 0 0 0 0 0 0 0 0 0 0 0 0 0
0 0 0 0 0 0 0 0 0 0 0 0 0 0 0 0 0 0 0 0 0 0 0 0 0 0 0 0 0 0 0 0 0 0 0 0 0 0 0 0 0 0 0
0 0 0 0 0 0 0 0 0 0 0 0 0 0 0 0 0 0 0 0 0 0 0 0 0 0 0 0 0 0 0 0 0 0 0 0 0 0 0 0 0 0 0
0 0 0 0 0 0 0 0 0 0 0 0 0 0 0 0 0 0 0 0 0 0 0 0 0 0 0 0 0 0 0 0 0 0 0 0 0 0 0 0 0 0 0
0 0 0 0 0 0 0 0 0 0 0 0 0 0 0 0 0 0 0 0 0 0 0 0 0 0 0 0 0 0 0 0 0 0 0 0 0 0 0 0 0 0 0
0 0 0 0 0 0 0 0 0 0 0 0 0 0 0 0 0 0 0 0 0 0 0 0 0 0 0 0 0 0 0 0 0 0 0 0 0 0 0 0 0 0 0
0 0 0 0 0 0 0 0 0 0 0 0 0 0 0 0 0 0 0 0 0 0 0 0 0 0 0 0 0 0 0 0 0 0 0 0 0 0 0 0 0 0 0
0 0 0 0 0 0 0 0 0 0 0 0 0 0 0 0 0 0 0 0 0 0 0 0 0 0 0 0 0 0 0 0 0 0 0 0 0 0 0 0 0 0 0
0 0 0 0 0 0 0 0 0 0 0 0 0 0 0 0 0 0 0 0 0 0 0 0 0 0 0 0 0 0 0 0 0 0 0 0 0 0 0 0 0 0 0
0 0 0 0 0 0 0 0 0 0 0 0 0 0 0 0 0 0 0 0 0 0 0 0 0 0 0 0 0 0 0 0 0 0 0 0 0 0 0 0 0 0 0
0 0 0 0 0 0 0 0 0 0 0 0 0 0 0 0 0 0 0 0 0 0 0 0 0 0 0 0 0 0 0 0 0 0 0 0 0 0 0 0 0 0 0
0 0 0 0 0 0 0 0 0 0 0 0 0 0 0 0 0 0 0 0 0 0 0 0 0 0 0 0 0 0 0 0 0 0 0 0 0 0 0 0 0 0 0
0 0 0 0 0 0 0 0 0 0 0 0 0 0 0 0 0 0 0 0 0 0 0 0 0 0 0 0 0 0 0 0 0 0 0 0 0 0 0 0 0 0 0
0 0 0 0 0 0 0 0 0 0 0 0 0 0 0 0 0 0 0 0 0 0 0 0 0 0 0 0 0 0 0 0 0 0 0 0 0 0 0 0 0 0 0
0 0 0 0 0 0 0 0 0 0 0 0 0 0 0 0 0 0 0 0 0 0 0 0 0 0 0 0 0 0 0 0 0 0 0 0 0 0 0 0 0 0 0
0 0 0 0 0 0 0 0 0 0 0 0 0 0 0 0 0 0 0 0 0 0 0 0 0 0 0 0 0 0 0 0 0 0 0 0 0 0 0 0 0 0 0
0 0 0 0 0 0 0 0 0 0 0 0 0 0 0 0 0 0 0 0 0 0 0 0 0 0 0 0 0 0 0 0 0 0 0 0 0 0 0 0 0 0 0
0 0 0 0 0 0 0 0 0 0 0 0 0 0 0 0 0 0 0 0 0 0 0 0 0 0 0 0 0 0 0 0 0 0 0 0 0 0 0 0 0 0 0
0 0 0 0 0 0 0 0 0 0 0 0 0 0 0 0 0 0 0 0 0 0 0 0 0 0 0 0 0 0 0 0 0 0 0 0 0 0 0 0 0 0 0
0 0 0 0 0 0 0 0 0 0 0 0 0 0 0 0 0 0 0 0 0 0 0 0 0 0 0 0 0 0 0 0 0 0 0 0 0 0 0 0 0 0 0
0 0 0 0 0 0 0 0 0 0 0 0 0 0 0 0 0 0 0 0 0 0 0 0 0 0 0 0 0 0 0 0 0 0 0 0 0 0 0 0 0 0 0
0 0 0 0 0 0 0 0 0 0 0 0 0 0 0 0 0 0 0 0 0 0 0 0 0 0 0 0 0 0 0 0 0 0 0 0 0 0 0 0 0 0 0
0 0 0 0 0 0 0 0 0 0 0 0 0 0 0 0 0 0 0 0 0 0 0 0 0 0 0 0 0 0 0 0 0 0 0 0 0 0 0 0 0 0 0
0 0 0 0 0 0 0 0 0 0 0 0 0 0 0 0 0 0 0 0 0 0 0 0 0 0 0 0 0 0 0 0 0 0 0 0 0 0 0 0 0 -0 -0
0 0 0 0 0 0 0 0 0 0 0 0 0 0 0 0 0 0 0 0 0 0 0 0 0 0 0 0 0 0 0 0 0 0 0 0 0 0 0 0 0 -0 -0
0 0 0 0 0 0 0 0 0 0 0 0 0 0 0 0 0 0 0 0 0 0 0 0 0 0 0 0 0 0 0 0 0 0 0 0 0 0 0 0 0 0 0
Wind_Speed_500mb
3 1 2 3 3 3 4 4 6 8 10 13 16 17 19 22 26 29 30 32 34 36 37 39 41 43 39 41 48 51 54 54 53 49 48 46 46 45 42 44 43 42 50
7 6 5 5 5 5 4 3 4 6 9 12 15 18 20 24 28 34 36 37 39 41 43 44 45 44 45 45 45 50 53 56 62 60 58 61 63 61 59 53 53 56 54
14 13 10 7 6 4 6 6 9 10 12 15 21 22 28 33 33 36 39 40 40 41 42 43 46 46 46 47 48 50 52 56 57 61 69 77 72 75 79 73 65 59 58
18 17 14 10 10 9 9 12 13 15 19 24 29 33 33 40 44 43 42 42 38 41 36 35 39 41 41 48 49 50 53 52 52 59 62 66 73 86 90 82 75 78 71
20 18 15 13 13 11 11 15 18 23 26 30 33 35 38 43 45 48 40 38 38 37 42 39 37 41 43 43 48 52 56 53 56 60 66 67 69 73 77 84 95 94 90
22 16 11 11 18 20 20 21 24 27 32 36 41 43 45 47 49 38 42 31 40 46 43 48 46 45 48 53 56 56 58 57 61 65 69 72 72 72 73 78 81 87 126
27 25 23 23 26 25 28 28 29 34 33 37 50 46 44 47 37 37 32 50 41 40 40 47 43 48 52 51 53 56 61 67 73 68 72 72 76 78 77 81 81 89 87
29 26 28 29 30 32 31 31 33 37 39 37 40 47 44 58 26 48 48 50 29 50 44 47 50 50 49 52 51 50 54 56 57 56 60 63 67 71 74 82 86 88 90
28 34 34 35 37 35 35 35 32 33 27 32 34 35 21 19 62 52 57 35 59 46 52 56 52 57 54 55 54 53 54 58 60 65 67 66 70 74 76 74 79 82 86
41 41 39 37 36 35 34 34 33 31 37 40 40 38 34 40 33 36 40 61 44 60 61 60 62 58 56 52 51 55 59 64 67 69 74 74 74 81 80 80 85 83 82
38 37 34 31 31 29 28 30 30 29 30 31 36 35 39 38 32 34 56 60 74 72 64 69 54 58 51 49 58 67 69 73 76 81 81 87 86 87 88 88 88 89 90
35 31 29 27 24 23 23 26 28 26 25 24 22 24 28 33 40 45 63 78 82 78 81 53 63 50 43 54 58 71 71 77 78 81 85 86 89 97 100 94 86 88 89
33 30 29 32 29 26 20 18 16 15 16 17 18 22 26 31 38 44 53 69 82 92 62 57 40 52 48 69 75 76 76 76 78 80 82 82 86 89 93 97 92 89 87
34 33 31 24 18 16 13 12 12 14 15 17 19 21 25 30 36 44 52 63 87 80 69 65 70 55 82 83 82 82 82 79 78 78 79 80 79 81 81 83 85 87 89
37 30 26 21 17 14 12 12 11 11 14 17 22 26 30 33 37 41 44 50 58 72 79 66 68 90 93 92 89 90 89 88 87 83 78 80 79 76 75 78 80 84 85
36 32 27 22 17 14 10 8 10 14 18 22 26 29 33 36 39 42 43 45 48 56 69 87 93 92 94 95 94 93 92 90 86 82 82 72 76 78 79 77 79 76 77
37 31 26 20 15 12 10 10 13 18 22 26 30 33 37 40 42 43 44 46 47 54 72 88 88 90 93 93 95 93 91 90 90 88 79 80 76 73 71 70 70 68 68
36 31 25 20 15 11 10 14 17 21 25 29 32 35 38 40 42 44 45 48 52 55 65 83 85 88 88 89 91 93 90 90 90 96 85 72 67 68 70 73 72 70 72
34 30 25 18 13 12 14 16 20 24 28 31 34 36 38 39 41 44 47 49 51 55 60 68 83 82 86 84 89 87 91 91 95 87 73 70 73 70 71 73 72 69 65
33 28 20 15 14 14 14 18 21 24 28 31 33 35 36 38 41 43 46 49 53 56 56 57 69 76 77 80 80 87 98 95 97 78 72 72 71 67 65 60 61 57 50
32 23 18 16 14 14 17 20 22 23 25 27 30 32 34 37 39 43 47 49 49 52 55 60 68 72 70 78 74 76 85 88 86 72 78 74 62 64 59 57 69 56 34
29 23 18 16 16 18 18 19 21 22 23 25 28 31 34 37 41 46 47 47 45 48 53 54 59 62 67 65 65 72 74 76 85 69 73 62 51 60 49 53 60 63 57
26 21 19 19 20 21 20 19 16 19 21 25 30 35 37 41 45 48 47 44 44 40 36 45 51 53 60 51 60 61 61 63 65 57 57 58 46 50 41 48 56 53 54
26 24 22 21 23 23 20 17 16 18 22 28 34 40 44 46 48 49 48 48 44 42 43 42 41 49 43 44 43 49 57 60 52 41 47 53 41 43 31 31 36 46 52
29 26 24 24 25 23 18 16 18 21 25 30 35 39 45 48 50 50 49 50 47 48 45 37 38 32 32 32 42 49 51 56 58 43 44 43 39 33 24 24 26 33 43
29 26 24 25 26 22 18 19 21 27 33 37 41 44 48 52 53 44 45 46 49 52 48 48 32 22 24 33 41 45 45 45 47 33 47 44 41 39 10 17 19 28 41
Wind_Direction_500mb
172 142 21 3 7 8 14 18 19 11 2 356 354 355 348 345 339 334 334 334 331 329 328 327 325 324 318 312 315 312 312 313 312 312 307 304 297 288 278 274 269 266 264
234 248 254 280 297 277 261 301 325 334 341 342 340 336 336 334 333 330 326 327 328 327 326 323 319 313 312 309 302 302 301 296 299 298 297 299 299 298 295 283 271 263 260
241 246 253 249 277 327 287 295 306 316 325 337 334 331 330 322 317 319 322 322 321 319 318 308 316 307 305 308 304 302 300 300 294 290 282 293 290 295 291 288 292 287 276
239 245 254 260 269 291 311 317 324 329 332 329 323 323 317 316 321 319 311 321 309 317 313 315 312 311 306 305 306 304 304 298 298 294 293 287 286 283 281 280 281 281 282
234 235 246 263 279 296 313 311 307 313 315 313 308 311 311 309 313 316 315 313 311 318 310 303 305 303 303 300 300 300 299 294 296 293 294 295 290 288 284 289 275 271 276
252 262 264 270 280 287 286 291 290 296 303 302 307 305 304 309 309 308 312 313 312 313 312 307 305 305 300 297 296 295 298 292 296 292 292 292 291 291 287 283 285 278 278
248 253 259 264 277 283 283 287 290 297 297 306 307 311 311 316 314 304 312 314 313 322 321 316 315 315 313 309 307 303 298 296 295 294 294 290 285 286 286 285 283 280 285
248 252 262 266 269 273 276 281 281 288 296 300 307 316 322 318 317 309 319 326 321 325 329 328 330 329 327 324 322 319 316 313 316 313 311 309 301 297 292 286 284 282 282
248 253 256 253 262 268 271 275 277 281 306 309 315 315 316 302 312 318 320 322 322 328 330 334 336 334 331 325 322 321 319 316 312 306 308 304 298 297 294 291 289 289 287
239 246 252 255 258 265 267 272 273 288 286 296 295 297 302 304 317 314 306 320 319 327 332 332 333 332 330 328 324 321 318 312 310 310 304 302 298 298 298 292 290 294 291
241 249 254 253 255 258 262 269 274 280 280 280 286 294 302 311 317 306 312 314 320 326 330 332 337 336 337 329 330 324 317 313 310 307 302 300 296 293 291 290 293 291 288
239 240 245 249 251 252 255 254 266 273 278 288 299 311 315 318 318 315 313 320 320 326 332 337 338 344 328 328 322 317 311 309 306 303 300 296 291 290 290 293 295 293 289
227 228 235 237 238 239 245 254 263 276 286 294 301 308 313 313 314 316 315 318 320 324 331 337 343 334 331 323 325 323 321 319 315 312 308 304 299 294 291 288 293 295 294
224 222 232 217 213 221 227 241 259 274 286 300 308 312 315 318 317 319 322 325 324 322 328 331 328 323 325 328 328 325 324 323 321 318 314 312 310 306 301 295 294 294 294
215 210 202 198 199 208 229 249 264 285 299 309 316 319 318 318 319 319 321 323 324 320 321 323 317 324 328 329 329 328 329 326 325 324 321 318 316 316 310 306 301 294 291
196 194 195 193 203 216 228 253 285 300 310 316 317 321 322 320 320 320 318 317 316 312 307 313 320 324 326 329 330 330 329 329 328 328 326 323 318 313 310 307 305 303 299
189 189 195 203 206 217 239 270 298 310 314 319 322 323 321 321 319 318 317 315 313 310 309 313 319 325 327 329 329 332 334 334 335 333 334 330 325 320 321 318 313 310 303
189 195 198 202 211 232 267 293 302 311 315 318 319 320 319 319 318 317 317 318 320 320 316 316 323 326 329 331 333 333 335 338 339 342 336 332 329 326 321 315 314 309 304
195 197 201 206 225 257 277 295 310 316 316 318 320 320 320 321 322 322 323 324 324 323 322 318 321 327 329 333 334 334 337 339 339 341 340 340 337 335 331 326 322 317 313
198 199 205 222 244 262 290 308 313 314 315 318 321 322 324 327 327 326 328 330 327 324 325 319 321 326 331 336 336 337 336 339 341 348 346 349 344 342 341 341 339 337 331
198 203 219 238 261 284 297 303 308 313 314 320 325 329 329 329 327 330 329 328 326 324 323 327 327 329 331 333 336 333 332 338 344 354 344 355 351 355 2 10 10 4 21
200 212 232 251 267 281 288 296 302 309 317 324 328 330 329 328 331 328 327 325 326 325 326 327 324 324 324 329 331 332 336 342 346 350 345 2 7 3 19 39 43 54 59
210 223 234 248 261 273 283 285 295 308 321 326 329 329 331 331 329 324 323 326 327 328 322 319 314 317 321 332 324 333 340 343 344 343 350 6 14 16 42 62 51 49 51
218 223 234 251 266 275 276 282 293 312 322 327 330 329 329 329 326 326 325 325 329 327 325 322 316 316 319 317 326 335 338 335 342 349 352 359 14 16 42 69 70 54 42
223 228 238 253 264 264 264 275 297 311 317 323 323 324 323 323 323 322 319 321 325 324 323 321 317 313 318 329 331 334 336 343 348 356 355 354 1 4 22 57 54 42 30
224 230 247 263 259 256 263 281 297 308 315 321 323 322 319 319 320 323 322 324 319 317 324 323 327 318 324 333 333 333 337 345 354 1 358 0 4 0 333 7 23 17 16
Wind_Speed_850mb
3 1 2 3 3 3 4 4 6 8 10 13 16 17 19 22 26 29 30 32 34 36 37 39 41 43 39 41 48 51 54 54 53 49 48 46 46 45 42 44 43 42 50
7 6 5 5 5 5 4 3 4 6 9 12 15 18 20 24 28 34 36 37 39 41 43 44 45 44 45 45 45 50 53 56 62 60 58 61 63 61 59 53 53 56 54
14 13 10 7 6 4 6 6 9 10 12 15 21 22 28 33 33 36 39 40 40 41 42 43 46 46 46 47 48 50 52 56 57 61 69 77 72 75 79 73 65 59 58
18 17 14 10 10 9 9 12 13 15 19 24 29 33 33 40 44 43 42 42 38 41 36 35 39 41 41 48 49 50 53 52 52 59 62 66 73 86 90 82 75 78 71
20 18 15 13 13 11 11 15 18 23 26 30 33 35 38 43 45 48 40 38 38 37 42 39 37 41 43 43 48 52 56 53 56 60 66 67 69 73 77 84 95 94 90
22 16 11 11 18 20 20 21 24 27 32 36 41 43 45 47 49 38 42 31 40 46 43 48 46 45 48 53 56 56 58 57 61 65 69 72 72 72 73 78 81 87 126
27 25 23 23 26 25 28 28 29 34 33 37 50 46 44 47 37 37 32 50 41 40 40 47 43 48 52 51 53 56 61 67 73 68 72 72 76 78 77 81 81 89 87
29 26 28 29 30 32 31 31 33 37 39 37 40 47 44 58 26 48 48 50 29 50 44 47 50 50 49 52 51 50 54 56 57 56 60 63 67 71 74 82 86 88 90
28 34 34 35 37 35 35 35 32 33 27 32 34 35 21 19 62 52 57 35 59 46 52 56 52 57 54 55 54 53 54 58 60 65 67 66 70 74 76 74 79 82 86
41 41 39 37 36 35 34 34 33 31 37 40 40 38 34 40 33 36 40 61 44 60 61 60 62 58 56 52 51 55 59 64 67 69 74 74 74 81 80 80 85 83 82
38 37 34 31 31 29 28 30 30 29 30 31 36 35 39 38 32 34 56 60 74 72 64 69 54 58 51 49 58 67 69 73 76 81 81 87 86 87 88 88 88 89 90
35 31 29 27 24 23 23 26 28 26 25 24 22 24 28 33 40 45 63 78 82 78 81 53 63 50 43 54 58 71 71 77 78 81 85 86 89 97 100 94 86 88 89
33 30 29 32 29 26 20 18 16 15 16 17 18 22 26 31 38 44 53 69 82 92 62 57 40 52 48 69 75 76 76 76 78 80 82 82 86 89 93 97 92 89 87
34 33 31 24 18 16 13 12 12 14 15 17 19 21 25 30 36 44 52 63 87 80 69 65 70 55 82 83 82 82 82 79 78 78 79 80 79 81 81 83 85 87 89
37 30 26 21 17 14 12 12 11 11 14 17 22 26 30 33 37 41 44 50 58 72 79 66 68 90 93 92 89 90 89 88 87 83 78 80 79 76 75 78 80 84 85
36 32 27 22 17 14 10 8 10 14 18 22 26 29 33 36 39 42 43 45 48 56 69 87 93 92 94 95 94 93 92 90 86 82 82 72 76 78 79 77 79 76 77
37 31 26 20 15 12 10 10 13 18 22 26 30 33 37 40 42 43 44 46 47 54 72 88 88 90 93 93 95 93 91 90 90 88 79 80 76 73 71 70 70 68 68
36 31 25 20 15 11 10 14 17 21 25 29 32 35 38 40 42 44 45 48 52 55 65 83 85 88 88 89 91 93 90 90 90 96 85 72 67 68 70 73 72 70 72
34 30 25 18 13 12 14 16 20 24 28 31 34 36 38 39 41 44 47 49 51 55 60 68 83 82 86 84 89 87 91 91 95 87 73 70 73 70 71 73 72 69 65
33 28 20 15 14 14 14 18 21 24 28 31 33 35 36 38 41 43 46 49 53 56 56 57 69 76 77 80 80 87 98 95 97 78 72 72 71 67 65 60 61 57 50
32 23 18 16 14 14 17 20 22 23 25 27 30 32 34 37 39 43 47 49 49 52 55 60 68 72 70 78 74 76 85 88 86 72 78 74 62 64 59 57 69 56 34
29 23 18 16 16 18 18 19 21 22 23 25 28 31 34 37 41 46 47 47 45 48 53 54 59 62 67 65 65 72 74 76 85 69 73 62 51 60 49 53 60 63 57
26 21 19 19 20 21 20 19 16 19 21 25 30 35 37 41 45 48 47 44 44 40 36 45 51 53 60 51 60 61 61 63 65 57 57 58 46 50 41 48 56 53 54
26 24 22 21 23 23 20 17 16 18 22 28 34 40 44 46 48 49 48 48 44 42 43 42 41 49 43 44 43 49 57 60 52 41 47 53 41 43 31 31 36 46 52
29 26 24 24 25 23 18 16 18 21 25 30 35 39 45 48 50 50 49 50 47 48 45 37 38 32 32 32 42 49 51 56 58 43 44 43 39 33 24 24 26 33 43
29 26 24 25 26 22 18 19 21 27 33 37 41 44 48 52 53 44 45 46 49 52 48 48 32 22 24 33 41 45 45 45 47 33 47 44 41 39 10 17 19 28 41
Wind_Direction_850mb
172 142 21 3 7 8 14 18 19 11 2 356 354 355 348 345 339 334 334 334 331 329 328 327 325 324 318 312 315 312 312 313 312 312 307 304 297 288 278 274 269 266 264
234 248 254 280 297 277 261 301 325 334 341 342 340 336 336 334 333 330 326 327 328 327 326 323 319 313 312 309 302 302 301 296 299 298 297 299 299 298 295 283 271 263 260
241 246 253 249 277 327 287 295 306 316 325 337 334 331 330 322 317 319 322 322 321 319 318 308 316 307 305 308 304 302 300 300 294 290 282 293 290 295 291 288 292 287 276
239 245 254 260 269 291 311 317 324 329 332 329 323 323 317 316 321 319 311 321 309 317 313 315 312 311 306 305 306 304 304 298 298 294 293 287 286 283 281 280 281 281 282
234 235 246 263 279 296 313 311 307 313 315 313 308 311 311 309 313 316 315 313 311 318 310 303 305 303 303 300 300 300 299 294 296 293 294 295 290 288 284 289 275 271 276
252 262 264 270 280 287 286 291 290 296 303 302 307 305 304 309 309 308 312 313 312 313 312 307 305 305 300 297 296 295 298 292 296 292 292 292 291 291 287 283 285 278 278
248 253 259 264 277 283 283 287 290 297 297 306 307 311 311 316 314 304 312 314 313 322 321 316 315 315 313 309 307 303 298 296 295 294 294 290 285 286 286 285 283 280 285
248 252 262 266 269 273 276 281 281 288 296 300 307 316 322 318 317 309 319 326 321 325 329 328 330 329 327 324 322 319 316 313 316 313 311 309 301 297 292 286 284 282 282
248 253 256 253 262 268 271 275 277 281 306 309 315 315 316 302 312 318 320 322 322 328 330 334 336 334 331 325 322 321 319 316 312 306 308 304 298 297 294 291 289 289 287
239 246 252 255 258 265 267 272 273 288 286 296 295 297 302 304 317 314 306 320 319 327 332 332 333 332 330 328 324 321 318 312 310 310 304 302 298 298 298 292 290 294 291
241 249 254 253 255 258 262 269 274 280 280 280 286 294 302 311 317 306 312 314 320 326 330 332 337 336 337 329 330 324 317 313 310 307 302 300 296 293 291 290 293 291 288
239 240 245 249 251 252 255 254 266 273 278 288 299 311 315 318 318 315 313 320 320 326 332 337 338 344 328 328 322 317 311 309 306 303 300 296 291 290 290 293 295 293 289
227 228 235 237 238 239 245 254 263 276 286 294 301 308 313 313 314 316 315 318 320 324 331 337 343 334 331 323 325 323 321 319 315 312 308 304 299 294 291 288 293 295 294
224 222 232 217 213 221 227 241 259 274 286 300 308 312 315 318 317 319 322 325 324 322 328 331 328 323 325 328 328 325 324 323 321 318 314 312 310 306 301 295 294 294 294
215 210 202 198 199 208 229 249 264 285 299 309 316 319 318 318 319 319 321 323 324 320 321 323 317 324 328 329 329 328 329 326 325 324 321 318 316 316 310 306 301 294 291
196 194 195 193 203 216 228 253 285 300 310 316 317 321 322 320 320 320 318 317 316 312 307 313 320 324 326 329 330 330 329 329 328 328 326 323 318 313 310 307 305 303 299
189 189 195 203 206 217 239 270 298 310 314 319 322 323 321 321 319 318 317 315 313 310 309 313 319 325 327 329 329 332 334 334 335 333 334 330 325 320 321 318 313 310 303
189 195 198 202 211 232 267 293 302 311 315 318 319 320 319 319 318 317 317 318 320 320 316 316 323 326 329 331 333 333 335 338 339 342 336 332 329 326 321 315 314 309 304
195 197 201 206 225 257 277 295 310 316 316 318 320 320 320 321 322 322 323 324 324 323 322 318 321 327 329 333 334 334 337 339 339 341 340 340 337 335 331 326 322 317 313
198 199 205 222 244 262 290 308 313 314 315 318 321 322 324 327 327 326 328 330 327 324 325 319 321 326 331 336 336 337 336 339 341 348 346 349 344 342 341 341 339 337 331
198 203 219 238 261 284 297 303 308 313 314 320 325 329 329 329 327 330 329 328 326 324 323 327 327 329 331 333 336 333 332 338 344 354 344 355 351 355 2 10 10 4 21
200 212 232 251 267 281 288 296 302 309 317 324 328 330 329 328 331 328 327 325 326 325 326 327 324 324 324 329 331 332 336 342 346 350 345 2 7 3 19 39 43 54 59
210 223 234 248 261 273 283 285 295 308 321 326 329 329 331 331 329 324 323 326 327 328 322 319 314 317 321 332 324 333 340 343 344 343 350 6 14 16 42 62 51 49 51
218 223 234 251 266 275 276 282 293 312 322 327 330 329 329 329 326 326 325 325 329 327 325 322 316 316 319 317 326 335 338 335 342 349 352 359 14 16 42 69 70 54 42
223 228 238 253 264 264 264 275 297 311 317 323 323 324 323 323 323 322 319 321 325 324 323 321 317 313 318 329 331 334 336 343 348 356 355 354 1 4 22 57 54 42 30
224 230 247 263 259 256 263 281 297 308 315 321 323 322 319 319 320 323 322 324 319 317 324 323 327 318 324 333 333 333 337 345 354 1 358 0 4 0 333 7 23 17 16